This is the latest recevied weather packets stored in our database for station/object KC3WWU. If no packets are shown the sender has not sent any weather packets the latest 10 day(s).
| Time | Temp. | Humidity | Pressure | Rain* | Wind** | Luminosity | Snow |
|---|---|---|---|---|---|---|---|
| 1777211438 | 5.56° C | 98% | 1017.5 hPa | 0 mm | - | 105 W/m² | - |
| 1777211133 | 5.56° C | 99% | 1017.8 hPa | 0 mm | - | 113 W/m² | - |
| 1777210831 | 5° C | 99% | 1017.6 hPa | 0 mm | - | 118 W/m² | - |
| 1777210529 | 5° C | 99% | 1017.5 hPa | 0 mm | - | 89 W/m² | - |
| 1777210227 | 5° C | 99% | 1017.4 hPa | 0 mm | - | 86 W/m² | - |
| 1777209922 | 5° C | 99% | 1017.4 hPa | 0 mm | - | 85 W/m² | - |
| 1777209617 | 5° C | 99% | 1017.2 hPa | 0 mm | - | 88 W/m² | - |
| 1777209314 | 5° C | 99% | 1017 hPa | 0 mm | - | 93 W/m² | - |
| 1777209010 | 5° C | 99% | 1017 hPa | 0 mm | - | 94 W/m² | - |
| 1777208707 | 5° C | 99% | 1017.1 hPa | 0 mm | - | 83 W/m² | - |
| 1777208404 | 5° C | 99% | 1016.8 hPa | 0 mm | - | 80 W/m² | - |
| 1777208100 | 5° C | 99% | 1016.9 hPa | 0 mm | - | 94 W/m² | - |
| 1777207795 | 5° C | 99% | 1016.9 hPa | 0 mm | - | 77 W/m² | - |
| 1777207495 | 5° C | 99% | 1016.6 hPa | 0 mm | - | 69 W/m² | - |
| 1777207195 | 5° C | 99% | 1016.8 hPa | 0 mm | - | 71 W/m² | - |
| 1777206891 | 5° C | 99% | 1016.6 hPa | 0 mm | - | 78 W/m² | - |
| 1777206586 | 5° C | 99% | 1016.4 hPa | 0 mm | - | 77 W/m² | - |
| 1777206287 | 5° C | 99% | 1016.4 hPa | 0 mm | - | 68 W/m² | - |
| 1777205982 | 5° C | 99% | 1016.5 hPa | 0 mm | - | 54 W/m² | - |
| 1777205679 | 5° C | 99% | 1016.5 hPa | 0 mm | - | 52 W/m² | - |
| 1777205376 | 5° C | 99% | 1016.5 hPa | 0 mm | - | 49 W/m² | - |
| 1777205071 | 5° C | 99% | 1016.3 hPa | 0 mm | - | 50 W/m² | - |
| 1777204767 | 5° C | 99% | 1016.4 hPa | 0 mm | - | 61 W/m² | - |
| 1777204462 | 5° C | 99% | 1016.2 hPa | 0 mm | - | 57 W/m² | - |
| 1777204159 | 5° C | 99% | 1016.1 hPa | 0 mm | - | 50 W/m² | - |
* Rain latest hour (hover to see other rain measurements)
** Current wind speed in m/s (hover to see current wind gust speed)